This demonstration page uses our WeatherBlox Daily Observations layout. Learn more.

Left ArrowRight Arrow

Hourly Observations for October 9, 2018

Temp ( °F °C ) Dew Point ( °F °C ) Humidity (%) Winds ( mph kmh ) Pressure ( in mb ) Visibility ( mi km ) Precip ( " mm )
12:14 am 00:14 Cloudy with Light Rain 45 7 43 6 93 93 N 10 17 30.03 1017 8 13 0.00 0.03
12:26 am 00:26 Cloudy with Light Rain 45 7 43 6 93 93 N 9 15 30.03 1017 9 14 0.00 0.03
12:57 am 00:57 Cloudy 44 6.7 43 6.1 96 96 N 10 17 29.99 1016 10 16 0.00 0.03
1:07 am 01:07 Cloudy 45 7 43 6 93 93 N 10 17 30.03 1017 10 16 0.00 0.00
1:57 am 01:57 Cloudy 44 6.7 43 6.1 96 96 NNW 12 19 29.99 1016 10 16 0.00 0.00
2:31 am 02:31 Cloudy with Light Rain 45 7 43 6 93 93 N 9 15 30.00 1016 6 10 0.00 0.00
2:39 am 02:39 Cloudy with Light Rain 45 7 43 6 93 93 N 8 13 30.00 1016 4 6 0.00 0.00
2:57 am 02:57 Cloudy with Light Rain 44 6.7 43 6.1 96 96 NNW 10 17 29.98 1015 4 6 0.01 0.25
3:05 am 03:05 Cloudy with Light Rain 45 7 43 6 93 93 N 10 17 30.00 1016 5 8 0.00 0.00
3:26 am 03:26 Cloudy with Light Rain 45 7 43 6 93 93 N 12 19 30.00 1016 4 6 0.01 0.25
3:53 am 03:53 Cloudy with Light Rain 45 7 43 6 93 93 N 13 20 29.97 1015 4 6 0.02 0.51
3:57 am 03:57 Cloudy with Light Rain 44 6.7 43 6.1 96 96 N 14 22 29.96 1015 4 6 0.02 0.51
4:22 am 04:22 Cloudy with Light Rain 45 7 43 6 93 93 N 13 20 30.00 1016 5 8 0.00 0.03
4:57 am 04:57 Cloudy with Light Rain 43 6.1 43 6.1 100 100 N 16 26 29.97 1015 4 6 0.00 0.03
5:15 am 05:15 Cloudy with Light Rain 43 6 43 6 100 100 N 17 28 29.97 1015 3 5 0.00 0.00
5:57 am 05:57 Cloudy with Light Rain 43 6.1 42 5.6 97 97 N 16 26 29.98 1015 3 4 0.01 0.25
6:14 am 06:14 Cloudy with Light Rain 43 6 43 6 100 100 N 16 26 30.00 1016 3 4 0.01 0.25
6:44 am 06:44 Cloudy with Light Rain 43 6 43 6 100 100 N 17 28 30.00 1016 3 5 0.01 0.25
6:57 am 06:57 Cloudy with Light Rain 43 6.1 42 5.6 97 97 N 17 28 29.97 1015 3 5 0.02 0.51
7:21 am 07:21 Cloudy with Light Rain 43 6 43 6 100 100 N 20 31 29.97 1015 6 10 0.00 0.03
7:57 am 07:57 Cloudy with Light Rain 42 5.6 41 5 96 96 NNE 17 28 29.96 1015 9 14 0.01 0.25
8:57 am 08:57 Cloudy with Light Rain 42 5.6 41 5 96 96 N 18 30 29.96 1015 8 13 0.01 0.25
9:57 am 09:57 Cloudy with Light Rain 42 5.6 41 5 96 96 N 23 37 29.96 1014 7 11 0.01 0.25
10:26 am 10:26 Cloudy with Light Rain 43 6 41 5 93 93 N 21 33 29.97 1015 7 11 0.00 0.03
10:57 am 10:57 Cloudy with Light Rain 42 5.6 41 5 96 96 N 23 37 29.94 1014 8 13 0.01 0.25
11:30 am 11:30 Cloudy with Light Rain 43 6 41 5 93 93 N 20 31 29.94 1014 8 13 0.02 0.51
11:57 am 11:57 Cloudy with Light Rain 42 5.6 41 5 96 96 N 23 37 29.91 1013 6 10 0.03 0.76
12:57 pm 12:57 Cloudy with Light Rain 43 6.1 41 5 93 93 N 21 33 29.87 1012 6 10 0.01 0.25
1:57 pm 13:57 Cloudy with Light Rain 43 6.1 42 5.6 97 97 N 23 37 29.83 1010 10 16 0.02 0.51
2:57 pm 14:57 Cloudy with Light Rain 43 6.1 41 5 93 93 N 22 35 29.82 1010 9 14 0.06 1.52
3:57 pm 15:57 Cloudy with Light Rain 43 6.1 41 5 93 93 N 24 39 29.78 1008 8 13 0.02 0.51
4:57 pm 16:57 Cloudy with Light Rain 42 5.6 41 5 96 96 N 21 33 29.78 1008 6 10 0.03 0.76
5:13 pm 17:13 Cloudy with Light Rain 43 6 39 4 87 87 N 24 39 29.83 1010 9 14 0.00 0.00
5:57 pm 17:57 Cloudy with Light Rain 42 5.6 40 4.4 92 92 N 25 41 29.77 1008 3 5 0.03 0.76
6:18 pm 18:18 Cloudy with Light Rain 41 5 39 4 93 93 N 17 28 29.83 1010 4 6 0.03 0.76
6:57 pm 18:57 Cloudy with Light Rain 41 5 39 3.9 93 93 N 24 39 29.78 1009 6 10 0.06 1.52
7:57 pm 19:57 Cloudy with Light Rain 40 4.4 39 3.9 97 97 N 20 31 29.81 1009 4 6 0.03 0.76
8:13 pm 20:13 Cloudy with Light Rain 39 4 39 4 100 100 N 18 30 29.85 1011 4 6 0.00 0.00
8:57 pm 20:57 Cloudy with Light Rain 40 4.4 39 3.9 97 97 NNW 18 30 29.82 1010 8 13 0.05 1.27
9:57 pm 21:57 Cloudy with Light Rain 40 4.4 38 3.3 93 93 N 20 31 29.80 1009 10 16 0.03 0.76
10:09 pm 22:09 Cloudy 39 4 37 3 93 93 N 18 30 29.85 1011 10 16 0.00 0.03
10:57 pm 22:57 Cloudy 40 4.4 38 3.3 93 93 N 20 31 29.80 1009 10 16 0.00 0.03
11:57 pm 23:57 Cloudy 40 4.4 38 3.3 93 93 NNW 15 24 29.81 1009 10 16 0.00 0.00

Powered by AerisWeather